Location: Grabów nad Wisłą
(51.3552°N, 21.6752°E)
Time: 22:41:46
(UTC+01:00)

ISS - Visible Passes

Search period start: 23 January 2019 00:00
Search period end: 02 February 2019 00:00
Orbit: 404 x 410 km, 51.6° (Epoch: 24 January)

Date Brightness Start Highest point End Pass type
(mag) Time Alt. Az. Time Alt. Az. Time Alt. Az.
23 Jan -1.3 18:40:12 10° SSW 18:41:05 16° SSW 18:41:05 16° SSW visible
24 Jan -2.0 17:49:28 10° S 17:51:54 19° SE 17:52:04 19° SE visible
24 Jan -0.4 19:24:44 10° WSW 19:24:47 10° WSW 19:24:47 10° WSW visible
25 Jan -1.4 16:59:18 10° SSE 17:00:46 12° SE 17:02:15 10° ESE visible
25 Jan -2.4 18:33:31 10° SW 18:35:41 34° SSW 18:35:41 34° SSW visible
26 Jan -2.8 17:42:24 10° SW 17:45:26 33° SSE 17:46:30 26° ESE visible
26 Jan -0.8 19:18:27 10° W 19:19:14 16° W 19:19:14 16° W visible
27 Jan -2.1 16:51:31 10° SSW 16:54:12 23° SE 16:56:52 10° E visible
27 Jan -3.5 18:27:05 10° WSW 18:30:00 62° SW 18:30:00 62° SW visible
28 Jan -3.5 17:35:46 10° WSW 17:39:01 55° SSE 17:40:43 25° E visible
28 Jan -1.2 19:12:12 10° W 19:13:26 21° W 19:13:26 21° W visible
29 Jan -3.9 18:20:46 10° W 18:24:05 88° N 18:24:07 87° NE visible
30 Jan -3.8 17:29:20 10° WSW 17:32:39 80° SSE 17:34:47 20° E visible
30 Jan -1.6 19:05:54 10° W 19:07:30 26° W 19:07:30 26° W visible
31 Jan -3.9 18:14:26 10° W 18:17:45 83° N 18:18:09 66° ENE visible
01 Feb -3.8 17:22:58 10° W 17:26:16 85° N 17:28:49 16° E visible
01 Feb -2.1 18:59:32 10° W 19:01:32 33° W 19:01:32 33° W visible
